Regional Weather Roundup
Issued by NWS

Home | Current Version | Previous Version | Text Only | Print | Product List | Glossary On
Versions: 1 2 3 4 5 6 7 8 9 10 11 12 13 14 15 16 17 18 19 20 21 22 23 24 25 26 27 28 29 30 31 32 33 34 35 36 37 38 39 40 41 42 43 44 45 46 47 48 49 50
000
ASUS45 KABQ 160610
RWRNM
NEW MEXICO REGIONAL WEATHER ROUNDUP
NATIONAL WEATHER SERVICE ALBUQUERQUE NM
1100 PM MST FRI DEC 15 2017

NOTE: "FAIR" MEANS FEW OR NO CLOUDS BELOW 12,000 FEET AGL WITH NO
       SIGNIFICANT WEATHER OR OBSTRUCTIONS TO VISION.

      THIS PRODUCT IS RELEASED AS TWO VERSIONS.  ONE VERSION NEAR
      THE TOP OF THE HOUR CONTAINING PRELIMINARY DATA FROM ALBUQUERQUE
      AND OTHER STATIONS.  A FINAL VERSION WITH ADDITIONAL DATA IS
      ISSUED ABOUT 10 MINUTES AFTER THE HOUR.

NMZ501-503-504-510>518-160700-
NORTHWEST PLATEAU/NORTHCENTRAL MOUNTAINS

CITY           SKY/WX    TMP DP  RH WIND       PRES   REMARKS
FARMINGTON     FAIR      21   7  54 E3        30.09F
6HR MIN TEMP:  19; 6HR MAX TEMP:  39;

LOS ALAMOS     FAIR      35  13  40 CALM      30.09F
SANTA FE       FAIR      22  11  62 N7        30.08S WCI  13
6HR MIN TEMP:  21; 6HR MAX TEMP:  38;

TAOS           FAIR      15  -2  46 N7        30.11F WCI   5
ANGEL FIRE     FAIR      10   2  72 CALM      30.11F

$$
NMZ402-403-502-505>509-160700-
WESTCENTRAL MOUNTAINS/SOUTHWEST MOUNTAINS

CITY           SKY/WX    TMP DP  RH WIND       PRES   REMARKS
GALLUP         FAIR      21   1  41 CALM      30.12F
6HR MIN TEMP:  15; 6HR MAX TEMP:  45;

GRANTS         FAIR      17  -9  31 NW5       30.14F WCI   9
SILVER CITY    FAIR      23  12  62 N8        30.15S WCI  14

$$
NMZ407-409-411-412-160700-
SOUTHERN DESERTS

CITY           SKY/WX    TMP DP  RH WIND       PRES   REMARKS
DEMING         FAIR      29  14  53 NW5       30.15F WCI  24
6HR MIN TEMP:  28; 6HR MAX TEMP:  48;

LAS CRUCES     FAIR      28  15  60 W7        30.16F WCI  20
HOLLOMAN AFB   FAIR      30  14  51 E6        30.17F WCI  24
ALAMOGORDO     FAIR      28  10  47 SE5       30.16F WCI  23
T OR C         FAIR      32  13  45 W8        30.14S WCI  25
6HR MIN TEMP:  32; 6HR MAX TEMP:  50;


$$
NMZ519>523-160700-
CENTRAL VALLEYS/CENTRAL HIGHLANDS

CITY           SKY/WX    TMP DP  RH WIND       PRES   REMARKS
ALBUQUERQUE    FAIR      32  13  45 SE3       30.12S
6HR MIN TEMP:  27; 6HR MAX TEMP:  44;

MORIARTY ARPT  FAIR      14  -1  51 CALM      30.09F
6HR MIN TEMP:  14; 6HR MAX TEMP:  39;

CLINES CORNERS FAIR      29   8  41 W17       30.06F WCI  17
6HR MIN TEMP:  28; 6HR MAX TEMP:  37;

BELEN          FAIR      26  13  57 S6        30.12S WCI  19
6HR MIN TEMP:  24; 6HR MAX TEMP:  44;

SOCORRO        FAIR      29  15  56 S8        30.13S WCI  21
6HR MIN TEMP:  29; 6HR MAX TEMP:  44;


$$
NMZ524>526-539-540-160700-
SOUTHCENTRAL MOUNTAINS

CITY           SKY/WX    TMP DP  RH WIND       PRES   REMARKS
RUIDOSO        FAIR      27   7  43 SW7       30.12S WCI  19

$$
NMZ527>531-160700-
NORTHEAST HIGHLANDS/NORTHEAST PLAINS

CITY           SKY/WX    TMP DP  RH WIND       PRES   REMARKS
LAS VEGAS      FAIR      33   1  25 N6        30.00F WCI  28
6HR MIN TEMP:  26; 6HR MAX TEMP:  42;

RATON          FAIR      24   9  52 NE8       29.97F WCI  15
6HR MIN TEMP:  22; 6HR MAX TEMP:  42;

CLAYTON        FAIR      35  13  40 W16       29.92S WCI  25
6HR MIN TEMP:  34; 6HR MAX TEMP:  43;


$$
NMZ532>537-160700-
EASTCENTRAL PLAINS

CITY           SKY/WX    TMP DP  RH WIND       PRES   REMARKS
SANTA ROSA     FAIR      31  11  43 S6        30.00S WCI  26
TUCUMCARI      FAIR      39  21  48 SW16      29.96F WCI  30
6HR MIN TEMP:  39; 6HR MAX TEMP:  47;

CANNON AFB     CLEAR     33  26  75 SW13      30.05F WCI  23
6HR MIN TEMP:  27; 6HR MAX TEMP:  39;

CLOVIS AIRPORT FAIR      25  20  81 SW9       30.05F WCI  15

$$
NMZ028-029-538-160700-
SOUTHEAST PLAINS

CITY           SKY/WX    TMP DP  RH WIND       PRES   REMARKS
ROSWELL        FAIR      23  17  78 SW7       30.06F WCI  15
6HR MIN TEMP:  23; 6HR MAX TEMP:  48;

ARTESIA          N/A     28  19  69 S7        30.09F WCI  21
CARLSBAD       FAIR      30  23  75 SW8       30.10F WCI  22
6HR MIN TEMP:  29; 6HR MAX TEMP:  48;

HOBBS          FAIR      28  23  80 SW10      30.11F WCI  19


$$



USA.gov is the U.S. government's official web portal to all federal, state and local government web resources and services.